Location: Chequamegon National Forest
(46.1070°N, 90.8420°W)
Time: 12:41:21
(UTC-05:00)

Amateur Radio Satellites - All Passes

Search period start: 25 June 2016 12:11
Search period end: 26 June 2016 12:11
Location: Chequamegon National Forest, 46.1070°N, 90.8420°W

Satellite Date Start Highest point End Downlink Frequencies (MHz)
Time Altitude Azimuth
AISAT 25 Jun 12:17:10 12:21:08 32° 97° (E) 12:25:04 437.250
Gurwin Techsat 1B 25 Jun 12:23:56 12:25:42 12° 53° (NE) 12:27:29 435.225
RS-15 25 Jun 12:31:16 12:42:11 55° 113° (ESE) 12:53:41 29.354- 29.394
Oscar 19 25 Jun 12:33:28 12:37:46 27° 63° (ENE) 12:42:04 437.125/150
BEESAT 2 25 Jun 12:34:46 12:38:44 62° 51° (NE) 12:42:42 435.950
UKube-1 25 Jun 12:37:36 12:41:28 31° 97° (E) 12:45:18 .
BUGSAT 1 25 Jun 12:41:38 12:45:31 47° 260° (W) 12:49:25 437.445
NANOSAT C BR1 25 Jun 12:44:12 12:47:25 21° 267° (W) 12:50:40 145.865
YUBILEINY 25 Jun 12:45:04 12:52:51 39° 85° (E) 13:00:42 435.215
QB50P1 25 Jun 12:45:09 12:48:16 20° 267° (W) 12:51:25 145.935-145.965
50 SAT 25 Jun 12:45:15 12:48:59 72° 102° (ESE) 12:52:40 437.505
SPROUT 25 Jun 12:46:21 12:50:04 28° 95° (E) 12:53:46 437.525
AIST 2 25 Jun 12:47:11 12:48:46 12° 28° (NNE) 12:50:20 435.215
POPSAT HIP 1 25 Jun 12:48:07 12:51:09 19° 268° (W) 12:54:11 437.405
DX 1 25 Jun 12:50:14 12:54:30 53° 101° (E) 12:58:43 434.975-435.025
Cosmos 2491 25 Jun 12:54:48 13:03:32 81° 265° (W) 13:12:15 435.465 / 435.565
PCSat 25 Jun 13:00:21 13:05:31 45° 246° (WSW) 13:10:39 145.827
QB50P2 25 Jun 13:00:29 13:02:40 14° 270° (W) 13:04:53 145.880/145.840
PHONESAT 2.4 25 Jun 13:01:34 13:03:34 16° 200° (SSW) 13:05:35 2401.200-2431.200
POLYITAN 1 25 Jun 13:03:12 13:05:18 13° 270° (W) 13:07:25 437.675
JAS-2 25 Jun 13:04:27 13:12:12 75° 257° (WSW) 13:19:19 435.910
AO-7 25 Jun 13:06:26 13:10:40 15° 38° (NE) 13:14:54 29.400- 29.500
DUCHIFAT 1 25 Jun 13:07:59 13:10:03 13° 270° (W) 13:12:08 145.980
HUMSAT D 25 Jun 13:08:37 13:10:05 12° 301° (WNW) 13:11:34 437.325/437.525
VELOX 1 25 Jun 13:12:54 13:17:17 72° 286° (WNW) 13:21:38 145.980
CUBEBUG 1 25 Jun 13:14:39 13:18:56 61° 287° (WNW) 13:23:10 437.445
O/OREOS (USA 219) 25 Jun 13:24:31 13:29:02 77° 65° (ENE) 13:33:31 437.305
ISS 25 Jun 13:24:40 13:27:37 30° 356° (N) 13:30:34 145.825
ESTCUBE 1 25 Jun 13:34:31 13:38:26 30° 294° (WNW) 13:42:19 437.505/2401.250
BEESAT 3 25 Jun 13:42:58 13:45:33 17° 248° (WSW) 13:48:06 437.485
AISAT 25 Jun 13:53:48 13:57:31 28° 294° (WNW) 14:01:14 437.250
Gurwin Techsat 1B 25 Jun 13:59:24 14:04:41 68° 72° (ENE) 14:09:58 435.225
Oscar 19 25 Jun 14:11:59 14:16:54 44° 262° (W) 14:21:49 437.125/150
UKube-1 25 Jun 14:13:46 14:17:26 27° 294° (WNW) 14:21:04 .
BEESAT 2 25 Jun 14:13:50 14:16:08 15° 249° (WSW) 14:18:23 435.950
Cosmos 2504 25 Jun 14:14:24 14:21:52 43° 86° (E) 14:29:48 435.465 / 435.565
TISAT 1 25 Jun 14:19:46 14:23:59 74° 103° (ESE) 14:28:11 437.305
50 SAT 25 Jun 14:21:15 14:22:06 11° 300° (WNW) 14:22:58 437.505
SPROUT 25 Jun 14:22:16 14:25:59 30° 293° (WNW) 14:29:43 437.525
AIST 2 25 Jun 14:24:07 14:28:12 51° 49° (NE) 14:32:16 435.215
ITAMSAT 1 25 Jun 14:26:20 14:31:17 46° 68° (ENE) 14:36:17 435.822/435.867
DX 1 25 Jun 14:27:23 14:30:18 18° 298° (WNW) 14:33:14 434.975-435.025
SWISSCUBE 25 Jun 14:39:48 14:43:52 27° 94° (E) 14:47:54 437.505
YUBILEINY 25 Jun 14:40:57 14:49:23 53° 286° (WNW) 14:57:57 435.215
RS-15 25 Jun 14:43:22 14:54:44 57° 319° (NW) 15:06:44 29.354- 29.394
AO-7 25 Jun 14:53:36 15:01:34 52° 61° (ENE) 15:09:34 29.400- 29.500
Cosmos 2491 25 Jun 14:53:44 14:58:55 18° 286° (WNW) 15:04:07 435.465 / 435.565
JAS-2 25 Jun 14:53:57 14:58:08 15° 274° (W) 15:02:11 435.910
ISS 25 Jun 15:01:26 15:04:34 41° 16° (NNE) 15:07:42 145.825
ITUPSAT 1 25 Jun 15:03:50 15:08:23 40° 98° (E) 15:12:54 437.325
BEESAT 25 Jun 15:05:12 15:09:46 42° 99° (E) 15:14:17 436.000
O/OREOS (USA 219) 25 Jun 15:06:05 15:07:46 12° 262° (W) 15:09:26 437.305
Gurwin Techsat 1B 25 Jun 15:41:37 15:45:08 18° 270° (W) 15:48:41 435.225
HORYU 2 25 Jun 15:42:21 15:45:04 16° 60° (ENE) 15:47:48 437.375
TISAT 1 25 Jun 15:57:10 15:59:05 13° 300° (WNW) 16:01:00 437.305
AIST 2 25 Jun 16:03:22 16:06:21 19° 247° (WSW) 16:09:19 435.215
ITAMSAT 1 25 Jun 16:06:41 16:10:58 26° 266° (W) 16:15:17 435.822/435.867
Cosmos 2504 25 Jun 16:07:27 16:15:11 47° 289° (WNW) 16:23:28 435.465 / 435.565
MOZHAYETS 4 25 Jun 16:15:58 16:19:54 27° 94° (E) 16:23:49
SWISSCUBE 25 Jun 16:17:18 16:21:46 39° 292° (WNW) 16:26:11 437.505
ISS 25 Jun 16:37:55 16:41:04 46° 215° (SW) 16:44:13 145.825
ITUPSAT 1 25 Jun 16:42:01 16:46:03 27° 296° (WNW) 16:50:03 437.325
BEESAT 25 Jun 16:43:24 16:47:20 26° 296° (WNW) 16:51:15 436.000
CUTE-I 25 Jun 16:44:05 16:46:39 14° 54° (NE) 16:49:12 437.470
YUBILEINY 25 Jun 16:45:34 16:48:45 12° 312° (NW) 16:51:59 435.215
AO-7 25 Jun 16:46:45 16:54:30 42° 262° (W) 17:02:20 29.400- 29.500
KKS-1 25 Jun 16:50:49 16:55:15 62° 102° (ESE) 16:59:39 437.445
SO-50 25 Jun 16:59:50 17:04:31 47° 120° (ESE) 17:09:12 436.795
RS-15 25 Jun 17:00:11 17:10:34 32° 351° (N) 17:21:17 29.354- 29.394
LilacSat-2 25 Jun 17:09:10 17:10:33 12° 61° (ENE) 17:11:56 437.200
NOAA 18 25 Jun 17:12:30 17:16:57 26° 61° (ENE) 17:21:25 137.9125
HORYU 2 25 Jun 17:16:46 17:21:09 63° 258° (WSW) 17:25:35 437.375
NOAA 15 25 Jun 17:21:04 17:25:50 35° 65° (ENE) 17:30:35 137.62
STARS 25 Jun 17:32:30 17:36:56 87° 107° (ESE) 17:41:19 437.465
CUBESAT XI-V 25 Jun 17:34:21 17:37:53 21° 92° (E) 17:41:24 437.345
AIST 1 25 Jun 17:35:12 17:39:19 44° 93° (E) 17:43:27
Cubesat XI-IV 25 Jun 17:45:28 17:50:25 40° 67° (ENE) 17:55:25 437.490
BRITE-PL 25 Jun 17:50:32 17:55:31 53° 72° (ENE) 18:00:08 437.365/2234.400
MOZHAYETS 4 25 Jun 17:52:53 17:57:08 36° 292° (WNW) 18:01:23
HO-68 25 Jun 18:03:02 18:07:07 16° 47° (NE) 18:11:12 435.675
Cosmos 2504 25 Jun 18:09:31 18:11:23 11° 315° (NW) 18:13:16 435.465 / 435.565
CUTE-I 25 Jun 18:20:29 18:25:49 79° 73° (ENE) 18:31:13 437.470
DOVE 4 25 Jun 18:23:00 18:26:25 23° 66° (ENE) 18:29:46 437.250
KKS-1 25 Jun 18:28:36 18:31:21 16° 300° (WNW) 18:34:06 437.445
DANDE 25 Jun 18:40:18 18:44:29 20° 58° (ENE) 18:47:55 436.750
LilacSat-2 25 Jun 18:40:35 18:44:20 66° 259° (W) 18:48:08 437.200
SO-50 25 Jun 18:40:49 18:45:12 32° 319° (NW) 18:49:33 436.795
GONETS M04 25 Jun 18:41:28 18:49:41 49° 88° (E) 18:57:53
GOMX 1 25 Jun 18:41:58 18:46:40 76° 74° (ENE) 18:51:05 467.674
CUTE 1.7 + AOD 2 25 Jun 18:44:55 18:46:14 11° 58° (ENE) 18:47:32 437.475
CUSAT 1 25 Jun 18:49:22 18:53:28 40° 71° (ENE) 18:56:40 437.405
NOAA 18 25 Jun 18:52:00 18:57:18 52° 260° (W) 19:02:41 137.9125
SEEDS 25 Jun 18:55:41 18:56:29 10° 58° (ENE) 18:57:18 437.485
Cosmos 2499 25 Jun 19:00:36 19:08:13 43° 86° (E) 19:16:17 435.465 / 435.565
NOAA 15 25 Jun 19:00:44 19:05:35 35° 263° (W) 19:10:25 137.62
STRAND 1 25 Jun 19:10:40 19:13:48 16° 89° (E) 19:16:54 437.568
STARS 25 Jun 19:10:55 19:12:37 12° 302° (WNW) 19:14:21 437.465
CUBESAT XI-V 25 Jun 19:11:04 19:15:30 45° 290° (WNW) 19:19:53 437.345
AIST 1 25 Jun 19:14:05 19:17:10 19° 291° (WNW) 19:20:14
RS-15 25 Jun 19:16:09 19:27:25 40° 25° (NNE) 19:38:48 29.354- 29.394
Cubesat XI-IV 25 Jun 19:25:54 19:30:35 31° 265° (W) 19:35:19 437.490
BRITE-PL 25 Jun 19:30:28 19:34:14 20° 267° (W) 19:37:49 437.365/2234.400
AAUSAT CUBESAT 2 25 Jun 19:42:12 19:45:03 18° 63° (ENE) 19:47:54 437.432
CINEMA 3 25 Jun 19:42:34 19:46:29 43° 71° (ENE) 19:50:27 145.822/145.860
HO-68 25 Jun 19:46:29 19:53:33 67° 68° (ENE) 20:00:41 435.675
AUBIESAT-1 25 Jun 19:51:45 19:53:54 16° 59° (ENE) 19:56:03 437.475
CANX-2 25 Jun 19:56:28 20:00:42 63° 74° (ENE) 20:04:59 2200.000
DOVE 4 25 Jun 19:59:57 20:04:00 36° 263° (W) 20:07:56 437.250
CUBEBUG 2 25 Jun 20:02:49 20:06:09 24° 65° (ENE) 20:09:32 437.445
CUTE-I 25 Jun 20:03:26 20:06:30 15° 272° (W) 20:09:35 437.470
COMPASS 1 25 Jun 20:11:34 20:15:33 42° 71° (ENE) 20:19:33 437.405
CUTE 1.7 + AOD 2 25 Jun 20:17:06 20:21:23 89° 271° (W) 20:25:43 437.475
DANDE 25 Jun 20:22:30 20:28:03 53° 267° (W) 20:32:08 436.750
GOMX 1 25 Jun 20:23:25 20:25:13 12° 271° (W) 20:26:59 467.674
SO-50 25 Jun 20:25:54 20:27:12 11° 342° (NNW) 20:28:30 436.795
M-CUBED/EXP-1 PRIME 25 Jun 20:26:58 20:30:09 51° 68° (ENE) 20:33:22 437.505
SEEDS 25 Jun 20:27:13 20:31:28 86° 76° (ENE) 20:35:46 437.485
PRISM 25 Jun 20:31:30 20:33:23 13° 90° (E) 20:35:15 437.425
CUSAT 1 25 Jun 20:32:57 20:34:49 13° 279° (W) 20:36:30 437.405
GONETS M04 25 Jun 20:38:30 20:46:38 42° 290° (WNW) 20:54:48
ZACube-1 25 Jun 20:43:21 20:46:58 29° 67° (ENE) 20:50:41 437.345
STRAND 1 25 Jun 20:48:21 20:53:31 72° 287° (WNW) 20:58:39 437.568
Cosmos 2499 25 Jun 20:53:18 21:01:15 48° 288° (WNW) 21:09:44 435.465 / 435.565
UWE-3 25 Jun 20:56:19 21:00:23 58° 73° (ENE) 21:04:36 435.000/436.395/437.385
Oscar 11 25 Jun 20:59:10 21:03:18 46° 71° (ENE) 21:07:30 145.826/435.025
FUNcube-1 25 Jun 21:02:23 21:06:19 42° 70° (ENE) 21:10:23 145.935
AAUSAT CUBESAT 2 25 Jun 21:16:07 21:20:10 49° 261° (W) 21:24:17 437.432
CINEMA 3 25 Jun 21:21:04 21:23:54 18° 269° (W) 21:26:44 145.822/145.860
AUBIESAT-1 25 Jun 21:25:11 21:28:12 33° 256° (WSW) 21:31:15 437.475
RS-15 25 Jun 21:29:25 21:41:50 86° 54° (NE) 21:54:10 29.354- 29.394
CANX-2 25 Jun 21:34:52 21:37:00 13° 271° (W) 21:39:09 2200.000
HO-68 25 Jun 21:36:00 21:41:49 26° 268° (W) 21:47:42 435.675
CUBEBUG 2 25 Jun 21:38:49 21:42:37 34° 264° (W) 21:46:30 437.445
COMPASS 1 25 Jun 21:48:13 21:51:18 19° 268° (W) 21:54:23 437.405
DELFI C3 25 Jun 21:54:53 21:58:55 84° 76° (ENE) 22:03:00 145.870
PRISM 25 Jun 22:05:03 22:09:06 61° 287° (WNW) 22:13:07 437.425
ZACube-1 25 Jun 22:19:37 22:23:14 28° 265° (W) 22:26:56 437.345
HUMSAT D 25 Jun 22:24:09 22:28:18 82° 75° (ENE) 22:32:33 437.325/437.525
STRAND 1 25 Jun 22:29:56 22:31:47 12° 306° (NW) 22:33:39 437.568
AO-85 25 Jun 22:29:57 22:35:06 45° 119° (ESE) 22:40:06 145.980
UWE-3 25 Jun 22:35:04 22:37:18 14° 271° (W) 22:39:33 435.000/436.395/437.385
ANTELSAT 25 Jun 22:35:14 22:38:53 23° 93° (E) 22:42:34 437.575/2403.000
Oscar 11 25 Jun 22:36:37 22:39:41 19° 268° (W) 22:42:47 145.826/435.025
VELOX 1 25 Jun 22:37:54 22:40:43 17° 61° (ENE) 22:43:32 145.980
CUBEBUG 1 25 Jun 22:38:16 22:41:09 18° 62° (ENE) 22:44:02 437.445
FUNcube-1 25 Jun 22:39:47 22:42:48 19° 269° (W) 22:45:53 145.935
YUBILEINY 25 Jun 22:51:34 22:58:12 23° 59° (ENE) 23:04:48 435.215
Cosmos 2499 25 Jun 22:54:30 22:57:08 11° 314° (NW) 22:59:47 435.465 / 435.565
ESTCUBE 1 25 Jun 22:59:20 23:03:34 39° 69° (ENE) 23:07:49 437.505/2401.250
AISAT 25 Jun 23:16:46 23:20:53 40° 69° (ENE) 23:25:00 437.250
50 SAT 25 Jun 23:25:18 23:28:52 46° 72° (ENE) 23:32:27 437.505
TIGRISAT 25 Jun 23:27:11 23:31:48 68° 102° (ESE) 23:36:27 435.000
UNISAT 6 25 Jun 23:31:13 23:35:52 79° 104° (ESE) 23:40:32 437.425
UKube-1 25 Jun 23:34:21 23:38:19 37° 68° (ENE) 23:42:19 .
SPROUT 25 Jun 23:42:19 23:46:01 30° 67° (ENE) 23:49:44 437.525
RS-15 25 Jun 23:42:59 23:52:57 31° 257° (WSW) 00:02:54 29.354- 29.394
DX 1 25 Jun 23:47:53 23:52:10 63° 73° (ENE) 23:56:29 434.975-435.025
SO-50 25 Jun 23:49:10 23:52:30 18° 32° (NNE) 23:55:46 436.795
Cosmos 2504 26 Jun 00:03:46 00:10:11 21° 57° (ENE) 00:16:28 435.465 / 435.565
Cosmos 2491 26 Jun 00:04:39 00:11:20 25° 79° (E) 00:18:00 435.465 / 435.565
AO-85 26 Jun 00:10:46 00:15:45 36° 317° (NW) 00:20:31 145.980
ANTELSAT 26 Jun 00:11:24 00:15:46 43° 290° (WNW) 00:20:12 437.575/2403.000
VELOX 1 26 Jun 00:12:23 00:16:45 59° 259° (W) 00:21:08 145.980
CUBEBUG 1 26 Jun 00:12:46 00:17:03 54° 260° (W) 00:21:21 437.445
JAS-2 26 Jun 00:15:33 00:17:07 11° 82° (E) 00:18:38 435.910
BUGSAT 1 26 Jun 00:21:17 00:24:16 19° 93° (E) 00:27:16 437.445
NANOSAT C BR1 26 Jun 00:24:46 00:28:53 48° 100° (E) 00:33:00 145.865
QB50P1 26 Jun 00:25:53 00:30:03 52° 100° (E) 00:34:12 145.935-145.965
POPSAT HIP 1 26 Jun 00:28:46 00:32:58 55° 101° (E) 00:37:09 437.405
ESTCUBE 1 26 Jun 00:36:51 00:40:30 24° 266° (W) 00:44:11 437.505/2401.250
QB50P2 26 Jun 00:40:14 00:44:31 80° 103° (ESE) 00:48:48 145.880/145.840
POLYITAN 1 26 Jun 00:42:51 00:47:08 81° 103° (ESE) 00:51:25 437.675
DUCHIFAT 1 26 Jun 00:46:50 00:51:04 79° 103° (ESE) 00:55:19 145.980
YUBILEINY 26 Jun 00:47:26 00:56:20 89° 93° (E) 01:05:12 435.215
AISAT 26 Jun 00:54:03 00:57:30 22° 266° (W) 01:00:58 437.250
50 SAT 26 Jun 01:00:46 01:02:48 14° 269° (W) 01:04:52 437.505
TIGRISAT 26 Jun 01:05:10 01:07:59 16° 299° (WNW) 01:10:49 435.000
UNISAT 6 26 Jun 01:09:33 01:11:59 14° 300° (WNW) 01:14:26 437.425
UKube-1 26 Jun 01:11:02 01:14:29 23° 266° (W) 01:17:56 .
TISAT 1 26 Jun 01:13:34 01:17:43 75° 75° (ENE) 01:21:53 437.305
SPROUT 26 Jun 01:18:18 01:21:57 27° 265° (W) 01:25:38 437.525
DX 1 26 Jun 01:26:31 01:28:48 14° 270° (W) 01:31:04 434.975-435.025
SO-50 26 Jun 01:29:00 01:33:44 83° 52° (NE) 01:38:17 436.795
SWISSCUBE 26 Jun 01:48:26 01:52:55 41° 68° (ENE) 01:57:25 437.505
AO-85 26 Jun 01:55:31 01:57:40 12° 339° (NNW) 01:59:46 145.980
BUGSAT 1 26 Jun 01:56:00 01:59:49 39° 290° (WNW) 02:03:38 437.445
Cosmos 2504 26 Jun 01:56:07 02:05:06 82° 81° (E) 02:13:47 435.465 / 435.565
JAS-2 26 Jun 01:57:28 02:03:25 82° 104° (ESE) 02:08:45 435.910
Cosmos 2491 26 Jun 01:58:27 02:07:15 77° 281° (W) 02:16:02 435.465 / 435.565
NANOSAT C BR1 26 Jun 02:01:22 02:04:17 18° 297° (WNW) 02:07:13 145.865
QB50P1 26 Jun 02:02:39 02:05:27 17° 298° (WNW) 02:08:15 145.935-145.965
PCSat 26 Jun 02:03:28 02:06:36 16° 104° (ESE) 02:09:45 145.827
POPSAT HIP 1 26 Jun 02:05:39 02:08:20 17° 298° (WNW) 02:11:03 437.405
ITUPSAT 1 26 Jun 02:12:47 02:17:31 62° 72° (ENE) 02:22:17 437.325
Gurwin Techsat 1B 26 Jun 02:13:43 02:17:49 22° 92° (E) 02:21:53 435.225
BEESAT 26 Jun 02:13:48 02:18:31 64° 72° (ENE) 02:23:17 436.000
QB50P2 26 Jun 02:17:57 02:19:43 12° 301° (WNW) 02:21:30 145.880/145.840
KKS-1 26 Jun 02:19:08 02:19:41 10° 56° (NE) 02:20:14 437.445
Oscar 19 26 Jun 02:20:34 02:25:36 53° 100° (E) 02:30:36 437.125/150
POLYITAN 1 26 Jun 02:20:38 02:22:20 12° 301° (WNW) 02:24:03 437.675
DUCHIFAT 1 26 Jun 02:24:27 02:26:11 12° 301° (WNW) 02:27:53 145.980
ITAMSAT 1 26 Jun 02:38:19 02:40:42 13° 88° (E) 02:43:04 435.822/435.867
YUBILEINY 26 Jun 02:45:52 02:51:54 21° 284° (WNW) 02:57:57 435.215
TISAT 1 26 Jun 02:52:53 02:53:54 11° 272° (W) 02:54:54 437.305
AO-7 26 Jun 02:55:47 02:58:13 11° 83° (E) 03:00:38 29.400- 29.500
STARS 26 Jun 02:57:55 02:59:55 13° 59° (ENE) 03:01:57 437.465
SO-50 26 Jun 03:11:15 03:13:30 13° 252° (WSW) 03:15:43 436.795
MOZHAYETS 4 26 Jun 03:20:04 03:24:13 34° 68° (ENE) 03:28:24
SWISSCUBE 26 Jun 03:26:54 03:30:51 25° 266° (W) 03:34:49 437.505
BEESAT 3 26 Jun 03:34:32 03:38:13 40° 119° (ESE) 03:41:55 437.485
O/OREOS (USA 219) 26 Jun 03:39:11 03:43:34 55° 110° (ESE) 03:47:58 437.305
AIST 1 26 Jun 03:40:29 03:43:01 15° 67° (ENE) 03:45:30
PCSat 26 Jun 03:43:50 03:49:16 84° 303° (WNW) 03:54:45 145.827
JAS-2 26 Jun 03:43:55 03:47:38 18° 306° (NW) 03:51:10 435.910
Cosmos 2504 26 Jun 03:50:46 03:57:27 25° 282° (WNW) 04:04:01 435.465 / 435.565
KKS-1 26 Jun 03:51:03 03:55:28 78° 74° (ENE) 03:59:55 437.445
ITUPSAT 1 26 Jun 03:52:40 03:55:47 17° 270° (W) 03:58:53 437.325
Gurwin Techsat 1B 26 Jun 03:52:54 03:58:07 55° 290° (WNW) 04:03:17 435.225
BEESAT 26 Jun 03:53:48 03:56:45 16° 270° (W) 03:59:43 436.000
Cosmos 2491 26 Jun 03:59:58 04:05:46 19° 304° (NW) 04:11:34 435.465 / 435.565
Oscar 19 26 Jun 04:00:36 04:04:34 23° 298° (WNW) 04:08:32 437.125/150
BEESAT 2 26 Jun 04:06:19 04:10:08 48° 120° (ESE) 04:14:00 435.950
ITAMSAT 1 26 Jun 04:15:36 04:20:53 88° 289° (WNW) 04:26:07 435.822/435.867
STARS 26 Jun 04:31:19 04:35:41 78° 256° (WSW) 04:40:05 437.465
CUBESAT XI-V 26 Jun 04:39:50 04:43:51 29° 66° (ENE) 04:47:52 437.345
AO-7 26 Jun 04:44:28 04:52:46 60° 104° (ESE) 05:01:00 29.400- 29.500
GONETS M04 26 Jun 04:48:22 04:55:36 28° 63° (ENE) 05:02:49
Cosmos 2499 26 Jun 04:48:58 04:55:10 20° 56° (ENE) 05:01:10 435.465 / 435.565
MOZHAYETS 4 26 Jun 04:57:25 05:01:24 29° 265° (W) 05:05:27
HORYU 2 26 Jun 05:05:44 05:09:06 20° 93° (E) 05:12:27 437.375
BEESAT 3 26 Jun 05:12:41 05:16:01 26° 318° (NW) 05:19:23 437.485
AIST 1 26 Jun 05:16:49 05:20:59 55° 265° (W) 05:25:08
O/OREOS (USA 219) 26 Jun 05:19:59 05:23:19 20° 309° (NW) 05:26:39 437.305
AO-85 26 Jun 05:20:04 05:23:06 16° 29° (NNE) 05:25:59 145.980
PCSat 26 Jun 05:29:35 05:33:30 20° 324° (NW) 05:37:27 145.827
KKS-1 26 Jun 05:31:04 05:32:36 12° 272° (W) 05:34:07 437.445
BEESAT 2 26 Jun 05:45:00 05:48:12 23° 320° (NW) 05:51:27 435.950
BRITE-PL 26 Jun 05:55:15 05:56:11 11° 88° (E) 05:57:05 437.365/2234.400
ITAMSAT 1 26 Jun 05:56:47 05:59:36 15° 304° (NW) 06:02:25 435.822/435.867
Cubesat XI-IV 26 Jun 06:01:49 06:04:07 13° 87° (E) 06:06:25 437.490
AIST 2 26 Jun 06:01:57 06:05:53 45° 120° (ESE) 06:09:50 435.215
LilacSat-2 26 Jun 06:13:20 06:14:41 11° 89° (E) 06:16:01 437.200
CUSAT 1 26 Jun 06:16:33 06:17:00 10° 79° (E) 06:17:28 437.405
CUBESAT XI-V 26 Jun 06:16:49 06:21:07 35° 264° (W) 06:25:28 437.345
STRAND 1 26 Jun 06:28:29 06:32:56 30° 64° (ENE) 06:37:24 437.568
CUTE-I 26 Jun 06:35:28 06:39:56 26° 93° (E) 06:44:22 437.470
AO-7 26 Jun 06:37:43 06:45:11 38° 304° (NW) 06:52:39 29.400- 29.500
Cosmos 2499 26 Jun 06:40:59 06:49:56 79° 80° (E) 06:58:23 435.465 / 435.565
HORYU 2 26 Jun 06:41:35 06:45:52 45° 290° (WNW) 06:50:10 437.375
GOMX 1 26 Jun 06:41:58 06:44:33 16° 91° (E) 06:47:10 467.674
GONETS M04 26 Jun 06:44:38 06:53:19 74° 266° (W) 07:02:00
AO-85 26 Jun 06:59:51 07:04:30 71° 52° (NE) 07:08:43 145.980
NOAA 18 26 Jun 07:11:08 07:16:36 55° 101° (E) 07:22:01 137.9125
NOAA 15 26 Jun 07:12:35 07:17:52 71° 103° (ESE) 07:23:05 137.62
PRISM 26 Jun 07:23:23 07:25:45 15° 61° (ENE) 07:28:07 437.425
BRITE-PL 26 Jun 07:31:04 07:35:15 71° 286° (WNW) 07:39:23 437.365/2234.400
Cubesat XI-IV 26 Jun 07:39:32 07:44:58 88° 107° (ESE) 07:50:22 437.490
AIST 2 26 Jun 07:41:05 07:44:33 25° 319° (NW) 07:48:02 435.215
LilacSat-2 26 Jun 07:45:33 07:49:23 62° 286° (WNW) 07:53:13 437.200
DANDE 26 Jun 07:47:34 07:54:37 31° 86° (E) 08:01:18 436.750
CUSAT 1 26 Jun 07:50:25 07:58:01 54° 95° (E) 08:04:33 437.405
DOVE 4 26 Jun 07:55:12 07:59:17 43° 99° (E) 08:03:30 437.250
CUTE 1.7 + AOD 2 26 Jun 08:01:04 08:03:16 14° 89° (E) 08:05:26 437.475
STRAND 1 26 Jun 08:07:11 08:11:58 39° 262° (W) 08:16:49 437.568
SEEDS 26 Jun 08:10:31 08:12:16 12° 88° (E) 08:14:00 437.485
CUTE-I 26 Jun 08:15:02 08:20:12 48° 291° (WNW) 08:25:21 437.470
GOMX 1 26 Jun 08:18:56 08:22:58 49° 288° (WNW) 08:27:04 467.674
AO-7 26 Jun 08:33:34 08:35:34 11° 328° (NNW) 08:37:35 29.400- 29.500
Cosmos 2499 26 Jun 08:35:20 08:42:03 25° 282° (WNW) 08:48:33 435.465 / 435.565
AO-85 26 Jun 08:41:52 08:44:15 14° 252° (WSW) 08:46:32 145.980
GONETS M04 26 Jun 08:43:55 08:48:31 16° 287° (WNW) 08:53:09
UWE-3 26 Jun 08:45:35 08:46:41 11° 87° (E) 08:47:48 435.000/436.395/437.385
PHONESAT 2.4 26 Jun 08:45:40 08:47:41 16° 160° (SSE) 08:49:41 2401.200-2431.200
NOAA 18 26 Jun 08:52:26 08:56:54 26° 300° (WNW) 09:01:22 137.9125
NOAA 15 26 Jun 08:53:31 08:57:06 19° 302° (WNW) 09:00:39 137.62
AAUSAT CUBESAT 2 26 Jun 08:56:22 08:59:35 21° 93° (E) 09:02:47 437.432
PRISM 26 Jun 08:56:29 09:00:36 61° 258° (WSW) 09:04:44 437.425
HO-68 26 Jun 08:58:52 09:05:56 55° 101° (ESE) 09:12:58 435.675
UNISAT 6 26 Jun 08:59:18 09:00:45 11° 57° (ENE) 09:02:12 437.425
CINEMA 3 26 Jun 09:10:39 09:15:08 81° 103° (ESE) 09:19:48 145.822/145.860
CANX-2 26 Jun 09:14:39 09:18:59 90° 277° (W) 09:23:16 2200.000
ISS 26 Jun 09:20:26 09:22:03 13° 134° (SE) 09:23:40 145.825
Cubesat XI-IV 26 Jun 09:21:08 09:24:19 16° 304° (WNW) 09:27:30 437.490
CUBEBUG 2 26 Jun 09:26:11 09:30:29 39° 98° (E) 09:34:51 437.445
COMPASS 1 26 Jun 09:27:05 09:31:15 56° 100° (E) 09:35:21 437.405
DANDE 26 Jun 09:28:37 09:37:01 69° 284° (WNW) 09:44:51 436.750
CUSAT 1 26 Jun 09:33:18 09:40:16 35° 290° (WNW) 09:46:18 437.405
DOVE 4 26 Jun 09:33:38 09:36:46 20° 295° (WNW) 09:39:59 437.250
CUTE 1.7 + AOD 2 26 Jun 09:35:16 09:39:32 63° 286° (WNW) 09:43:44 437.475
ANTELSAT 26 Jun 09:36:43 09:40:15 25° 65° (ENE) 09:43:53 437.575/2403.000
M-CUBED/EXP-1 PRIME 26 Jun 09:37:14 09:40:29 26° 102° (ESE) 09:43:56 437.505
SEEDS 26 Jun 09:44:12 09:48:27 69° 286° (WNW) 09:52:39 437.485
ZACube-1 26 Jun 10:04:20 10:08:42 45° 98° (E) 10:13:05 437.345
HUMSAT D 26 Jun 10:07:03 10:08:38 12° 88° (E) 10:10:12 437.325/437.525
Cosmos 2491 26 Jun 10:10:50 10:15:23 15° 51° (NE) 10:19:53 435.465 / 435.565
BEESAT 3 26 Jun 10:13:11 10:14:37 12° 29° (NNE) 10:16:03 437.485
UWE-3 26 Jun 10:19:10 10:23:44 88° 289° (WNW) 10:28:23 435.000/436.395/437.385
Oscar 11 26 Jun 10:19:35 10:23:57 67° 102° (ESE) 10:28:17 145.826/435.025
PHONESAT 2.4 26 Jun 10:21:05 10:23:47 28° 177° (S) 10:26:29 2401.200-2431.200
FUNcube-1 26 Jun 10:23:20 10:27:51 66° 101° (ESE) 10:32:23 145.935
TIGRISAT 26 Jun 10:28:15 10:32:31 79° 74° (ENE) 10:36:55 435.000
JAS-2 26 Jun 10:30:51 10:33:38 13° 49° (NE) 10:36:20 435.910
AAUSAT CUBESAT 2 26 Jun 10:31:19 10:35:12 37° 290° (WNW) 10:39:02 437.432
UNISAT 6 26 Jun 10:32:27 10:36:45 89° 254° (WSW) 10:41:11 437.425
AUBIESAT-1 26 Jun 10:34:15 10:38:05 86° 286° (WNW) 10:42:10 437.475
BEESAT 2 26 Jun 10:45:23 10:47:20 13° 31° (NNE) 10:49:17 435.950
PCSat 26 Jun 10:46:21 10:50:58 27° 42° (NE) 10:55:35 145.827
HO-68 26 Jun 10:47:02 10:53:22 35° 301° (WNW) 10:59:41 435.675
CINEMA 3 26 Jun 10:49:38 10:51:43 13° 300° (WNW) 10:53:51 145.822/145.860
CANX-2 26 Jun 10:52:55 10:54:08 11° 302° (WNW) 10:55:21 2200.000
ISS 26 Jun 10:54:45 10:58:01 81° 151° (SSE) 11:01:18 145.825
CUBEBUG 2 26 Jun 11:03:11 11:06:55 25° 294° (WNW) 11:10:43 437.445
COMPASS 1 26 Jun 11:03:47 11:06:23 16° 298° (WNW) 11:08:57 437.405
DELFI C3 26 Jun 11:04:48 11:08:50 82° 284° (WNW) 11:12:49 145.870
M-CUBED/EXP-1 PRIME 26 Jun 11:11:46 11:15:01 28° 297° (WNW) 11:18:27 437.505
ANTELSAT 26 Jun 11:12:55 11:16:51 34° 264° (W) 11:20:52 437.575/2403.000
BUGSAT 1 26 Jun 11:13:46 11:16:40 19° 64° (ENE) 11:19:34 437.445
DANDE 26 Jun 11:15:47 11:21:08 18° 303° (WNW) 11:26:12 436.750
NANOSAT C BR1 26 Jun 11:19:08 11:23:10 49° 71° (ENE) 11:27:13 145.865
QB50P1 26 Jun 11:20:32 11:24:36 53° 72° (ENE) 11:28:43 145.935-145.965
POPSAT HIP 1 26 Jun 11:23:28 11:27:34 56° 72° (ENE) 11:31:41 437.405
QB50P2 26 Jun 11:35:00 11:39:12 81° 75° (ENE) 11:43:26 145.880/145.840
POLYITAN 1 26 Jun 11:37:38 11:41:49 83° 75° (ENE) 11:46:04 437.675
HUMSAT D 26 Jun 11:40:26 11:44:46 74° 284° (WNW) 11:49:04 437.325/437.525
DUCHIFAT 1 26 Jun 11:40:51 11:45:01 80° 74° (ENE) 11:49:12 145.980
ZACube-1 26 Jun 11:41:15 11:44:43 22° 296° (WNW) 11:48:12 437.345
BEESAT 3 26 Jun 11:49:15 11:53:10 55° 50° (NE) 11:57:03 437.485
Oscar 11 26 Jun 11:57:08 11:59:33 15° 299° (WNW) 12:01:59 145.826/435.025
PHONESAT 2.4 26 Jun 11:57:31 11:59:57 21° 194° (SSW) 12:02:23 2401.200-2431.200
UWE-3 26 Jun 11:57:47 11:59:31 12° 301° (WNW) 12:01:16 435.000/436.395/437.385
YUBILEINY 26 Jun 11:57:57 12:04:02 22° 77° (ENE) 12:10:08 435.215
CUBEBUG 1 26 Jun 11:59:15 12:02:38 22° 93° (E) 12:06:01 437.445
VELOX 1 26 Jun 12:00:30 12:03:51 21° 93° (E) 12:07:12 145.980
FUNcube-1 26 Jun 12:00:52 12:03:36 16° 299° (WNW) 12:06:21 145.935
Oscar 19 26 Jun 12:03:20 12:06:21 16° 57° (ENE) 12:09:23 437.125/150
TIGRISAT 26 Jun 12:08:44 12:09:50 11° 273° (W) 12:10:56 435.000
